EDT,Max TemperatureF,Mean TemperatureF,Min TemperatureF,Max Dew PointF,MeanDew PointF,Min DewpointF,Max Humidity, Mean Humidity, Min Humidity, Max Sea Level PressureIn, Mean Sea Level PressureIn, Min Sea Level PressureIn, Max VisibilityMiles, Mean VisibilityMiles, Min VisibilityMiles, Max Wind SpeedMPH, Mean Wind SpeedMPH, Max Gust SpeedMPH,PrecipitationIn, CloudCover, Events, WindDirDegrees
2011-10-1,46,44,42,45,43,39,100,92,87,30.00,29.88,29.78,10,7,2,13,8,22,0.21,8,,306
2011-10-2,42,40,37,43,38,34,100,90,70,29.98,29.94,29.91,10,8,3,10,6,18,0.52,8,,328
2011-10-3,59,50,42,52,47,43,100,92,77,30.11,30.01,29.95,10,8,0,8,4,,0.04,7,,312
2011-10-4,64,57,50,54,49,45,100,83,52,30.24,30.19,30.14,10,7,2,10,5,17,0.08,6,,297
2011-10-5,69,55,41,54,46,39,100,76,46,30.31,30.27,30.24,10,9,2,9,7,,0.00,0,,270
2011-10-6,69,56,42,50,44,39,100,71,33,30.41,30.37,30.33,10,10,2,7,4,,0.00,0,,78
2011-10-7,73,58,42,52,47,41,100,75,41,30.48,30.43,30.38,10,7,0,6,2,,0.00,2,,101
2011-10-8,75,60,44,55,49,45,100,77,47,30.53,30.48,30.44,10,10,10,9,5,,0.00,0,,145
2011-10-9,78,61,44,54,49,45,100,71,32,30.50,30.45,30.39,10,9,1,7,3,,0.00,0,,147
2011-10-10,73,58,44,61,53,43,100,85,57,30.39,30.33,30.25,10,8,0,5,1,,0.00,0,,65
2011-10-11,73,58,44,57,50,45,100,77,44,30.24,30.18,30.11,10,8,1,10,4,,0.00,0,,90
2011-10-12,60,56,53,55,54,54,100,93,77,30.10,29.99,29.85,10,7,2,14,8,20,0.37,8,,105
2011-10-13,66,60,53,61,56,52,100,90,78,29.83,29.71,29.53,10,9,5,13,8,,0.11,8,Thunderstorm,123
2011-10-14,60,55,50,57,53,43,100,89,63,29.50,29.45,29.41,10,10,6,18,11,30,0.42,8,,222
2011-10-15,51,48,44,43,39,34,93,73,50,29.69,29.60,29.56,10,10,9,22,13,39,0.08,8,,235
2011-10-16,51,48,46,48,40,34,94,75,58,29.93,29.84,29.68,10,10,9,16,9,22,0.27,7,,216
2011-10-17,60,50,41,46,34,21,100,62,23,29.82,29.78,29.75,10,10,6,20,10,32,0.11,0,,231
2011-10-18,59,52,46,43,33,28,76,51,36,29.87,29.83,29.80,10,10,9,10,6,,0.01,7,,246
2011-10-19,64,54,44,54,46,39,93,77,64,29.73,29.58,29.34,10,10,10,20,8,28,0.01,5,,69
2011-10-20,51,46,41,50,41,37,100,89,81,29.53,29.33,29.25,10,9,2,22,14,34,0.23,8,,198
2011-10-21,46,44,41,43,40,37,100,90,81,30.09,29.92,29.66,10,8,2,16,11,23,0.03,8,,244
2011-10-22,53,47,41,41,37,34,93,73,47,30.12,30.09,30.07,10,10,7,12,7,,0.00,5,,246
2011-10-23,59,46,33,39,36,32,100,72,42,30.12,30.08,30.05,10,10,10,10,3,16,0.00,0,,193
2011-10-24,51,46,42,48,41,36,100,80,66,30.10,30.01,29.96,10,10,9,13,7,16,0.07,4,,214
2011-10-25,60,48,35,43,37,34,93,71,39,30.20,30.14,30.01,10,10,10,12,7,,0.00,2,,233
2011-10-26,59,52,46,52,46,36,100,80,54,29.96,29.84,29.74,10,10,4,15,7,20,0.03,7,,220
2011-10-27,51,43,35,50,39,34,100,95,87,30.01,29.80,29.73,10,9,4,12,6,20,0.34,8,,357
2011-10-28,37,32,28,34,30,27,100,94,81,30.24,30.18,30.09,10,4,0,7,3,,0.00,7,,125
2011-10-29,35,32,30,36,32,28,100,94,87,30.13,30.07,30.04,10,6,0,6,3,,0.08,7,,62
2011-10-30,35,32,28,34,30,27,100,96,87,30.29,30.22,30.10,10,3,0,8,3,,0.00,8,,159
2011-10-31,48,39,30,39,33,30,100,83,58,30.24,30.18,30.13,10,8,0,12,5,,0.05,3,,135